Princeton, MN

4:34 AM CST on November 22, 2019 (GMT -0600)
Princeton Municipal

Weather History for KPNM - August, 2019

Change the Weather History Date:

Tuesday, August 6, 2019

  Actual Average Record
Temperature  
Mean Temperature 71 °F -  
Max Temperature 87 °F 77 °F 96 °F (2001)
Min Temperature 55 °F 54 °F 10 °F (1997)
Cooling Degree Days 6    
Growing Degree Days 21 (Base 50)    
Moisture  
Dew Point 61 °F    
Average Humidity 71    
Maximum Humidity 100    
Minimum Humidity 37    
Precipitation  
Precipitation 0.00 in - - ()
Sea Level Pressure  
Sea Level Pressure 29.85 in    
Wind  
Wind Speed 4 mph (West)    
Max Wind Speed 12 mph    
Max Gust Speed 18 mph    
Visibility 9 miles    
Events Fog    
Averages and records for this station are not official NWS values.
T = Trace of Precipitation, MM = Missing Value Source: NWS Daily Summary

Daily Weather History Graph

Daily Weather History Graph

Search for Another Location

Airport or City:

Astronomy

Aug. 06, 2019 Rise Set
Actual Time 6:03 AM CDT 8:36 PM CDT
Civil Twilight 5:30 AM CDT 9:09 PM CDT
Nautical Twilight 4:48 AM CDT 9:51 PM CDT
Astronomical Twilight 3:59 AM CDT 10:39 PM CDT
Moon 12:48 PM CDT (8/6) No Moon Set
Length of Visible Light 15h 39m
Length of Day
14h 32m
Waxing Crescent, 39% of the Moon is Illuminated
Aug 6
Waxing Crescent
Aug 7
First Quarter
Aug 15
Full
Aug 23
Last Quarter
Aug 30
New

Hourly Weather History & Observations

Time (CDT) Temp. Heat Index Dew Point Humidity Pressure Visibility Wind Dir Wind Speed Gust Speed Precip Events Conditions
12:15 AM 64.4 °F - 62.6 °F 94% 29.86 in 10.0 mi WNW 3.5 mph - N/A   Clear
12:16 AM 64.4 °F - 62.6 °F 94% 29.86 in 10.0 mi West 3.5 mph - N/A   Clear
12:35 AM 64.4 °F - 62.6 °F 94% 29.87 in 10.0 mi West 3.5 mph - N/A   Clear
12:59 AM 64.4 °F - 62.6 °F 94% 29.87 in 10.0 mi West 3.5 mph - N/A   Clear
1:17 AM 64.4 °F - 60.8 °F 88% 29.87 in 10.0 mi West 4.6 mph - N/A   Clear
1:35 AM 64.4 °F - 60.8 °F 88% 29.87 in 10.0 mi WNW 3.5 mph - N/A   Clear
1:55 AM 64.4 °F - 60.8 °F 88% 29.87 in 10.0 mi West 4.6 mph - N/A   Clear
2:15 AM 64.4 °F - 60.8 °F 88% 29.87 in 10.0 mi West 3.5 mph - N/A   Clear
2:20 AM 62.6 °F - 60.8 °F 94% 29.87 in 10.0 mi West 3.5 mph - N/A   Clear
2:38 AM 62.6 °F - 60.8 °F 94% 29.87 in 10.0 mi Calm Calm - N/A   Clear
2:56 AM 62.6 °F - 60.8 °F 94% 29.87 in 10.0 mi Calm Calm - N/A   Clear
3:15 AM 60.8 °F - 60.8 °F 100% 29.87 in 10.0 mi West 4.6 mph - N/A   Clear
3:35 AM 62.6 °F - 60.8 °F 94% 29.87 in 10.0 mi West 3.5 mph - N/A   Clear
3:59 AM 60.8 °F - 59.0 °F 94% 29.88 in 10.0 mi Calm Calm - N/A   Clear
4:17 AM 60.8 °F - 57.2 °F 88% 29.88 in 10.0 mi Calm Calm - N/A   Clear
4:35 AM 59.0 °F - 57.2 °F 94% 29.87 in 3.0 mi Calm Calm - N/A   Clear
4:36 AM 59.0 °F - 57.2 °F 94% 29.87 in 3.0 mi Calm Calm - N/A   Clear
4:55 AM 57.2 °F - 57.2 °F 100% 29.87 in 0.2 mi Calm Calm - N/A Fog Fog
4:56 AM 57.2 °F - 57.2 °F 100% 29.87 in 0.2 mi Calm Calm - N/A Fog Fog
5:15 AM 57.2 °F - 57.2 °F 100% 29.88 in 0.5 mi Calm Calm - N/A Fog Fog
5:20 AM 57.2 °F - 57.2 °F 100% 29.88 in 2.0 mi Calm Calm - N/A   Clear
5:38 AM 55.4 °F - 53.6 °F 94% 29.88 in 4.0 mi Calm Calm - N/A   Clear
5:56 AM 55.4 °F - 55.4 °F 100% 29.88 in 1.0 mi Calm Calm - N/A   Clear
6:15 AM 55.4 °F - 55.4 °F 100% 29.88 in 0.2 mi Calm Calm - N/A Fog Fog
6:35 AM 57.2 °F - 55.4 °F 94% 29.88 in 0.2 mi Calm Calm - N/A Fog Fog
6:36 AM 57.2 °F - 55.4 °F 94% 29.88 in 0.2 mi Calm Calm - N/A Fog Fog
6:59 AM 57.2 °F - 57.2 °F 100% 29.89 in 1.2 mi Calm Calm - N/A   Clear
7:17 AM 60.8 °F - 60.8 °F 100% 29.89 in 10.0 mi Calm Calm - N/A   Clear
7:35 AM 62.6 °F - 62.6 °F 100% 29.89 in 10.0 mi Calm Calm - N/A   Clear
7:55 AM 64.4 °F - 64.4 °F 100% 29.89 in 10.0 mi Calm Calm - N/A   Clear
7:56 AM 64.4 °F - 64.4 °F 100% 29.89 in 10.0 mi Calm Calm - N/A   Clear
8:15 AM 68.0 °F - 62.6 °F 83% 29.89 in 10.0 mi West 3.5 mph - N/A   Clear
8:20 AM 68.0 °F - 62.6 °F 83% 29.89 in 10.0 mi West 3.5 mph - N/A   Clear
8:38 AM 69.8 °F - 64.4 °F 83% 29.89 in 10.0 mi West 3.5 mph - N/A   Clear
8:56 AM 71.6 °F - 64.4 °F 78% 29.89 in 10.0 mi WSW 3.5 mph - N/A   Clear
9:15 AM 73.4 °F - 64.4 °F 73% 29.89 in 10.0 mi Calm Calm - N/A   Clear
9:35 AM 75.2 °F - 64.4 °F 69% 29.88 in 10.0 mi West 4.6 mph - N/A   Clear
9:36 AM 75.2 °F - 64.4 °F 69% 29.88 in 10.0 mi West 3.5 mph - N/A   Clear
9:59 AM 77.0 °F - 64.4 °F 65% 29.88 in 10.0 mi West 3.5 mph - N/A   Clear
10:17 AM 78.8 °F - 62.6 °F 57% 29.88 in 10.0 mi West 4.6 mph - N/A   Clear
10:35 AM 80.6 °F 81.8 °F 62.6 °F 54% 29.88 in 10.0 mi West 5.8 mph - N/A   Clear
10:55 AM 80.6 °F 81.5 °F 60.8 °F 51% 29.88 in 10.0 mi West 9.2 mph - N/A   Clear
10:56 AM 80.6 °F 81.5 °F 60.8 °F 51% 29.88 in 10.0 mi West 9.2 mph - N/A   Clear
11:15 AM 82.4 °F 82.9 °F 60.8 °F 48% 29.88 in 10.0 mi West 10.4 mph - N/A   Clear
11:20 AM 82.4 °F 82.9 °F 60.8 °F 48% 29.88 in 10.0 mi West 6.9 mph - N/A   Clear
11:38 AM 82.4 °F 82.9 °F 60.8 °F 48% 29.88 in 10.0 mi West 10.4 mph - N/A   Clear
11:56 AM 82.4 °F 82.5 °F 59.0 °F 45% 29.88 in 10.0 mi West 8.1 mph - N/A   Clear
12:15 PM 84.2 °F 83.5 °F 57.2 °F 40% 29.88 in 10.0 mi West 10.4 mph - N/A   Clear
12:35 PM 84.2 °F 84.4 °F 60.8 °F 45% 29.87 in 10.0 mi West 11.5 mph - N/A   Clear
12:36 PM 84.2 °F 84.4 °F 60.8 °F 45% 29.87 in 10.0 mi WSW 10.4 mph - N/A   Clear
12:59 PM 84.2 °F 83.8 °F 59.0 °F 42% 29.86 in 10.0 mi West 10.4 mph - N/A   Clear
1:17 PM 84.2 °F 83.8 °F 59.0 °F 42% 29.86 in 10.0 mi WSW 8.1 mph - N/A   Clear
1:35 PM 84.2 °F 84.4 °F 60.8 °F 45% 29.86 in 10.0 mi West 9.2 mph - N/A   Scattered Clouds
1:55 PM 84.2 °F 83.8 °F 59.0 °F 42% 29.86 in 10.0 mi West 8.1 mph 17.3 mph N/A   Scattered Clouds
2:15 PM 84.2 °F 84.4 °F 60.8 °F 45% 29.86 in 10.0 mi West 9.2 mph - N/A   Scattered Clouds
2:20 PM 86.0 °F 85.4 °F 59.0 °F 40% 29.85 in 10.0 mi West 10.4 mph 17.3 mph N/A   Scattered Clouds
2:38 PM 84.2 °F 84.4 °F 60.8 °F 45% 29.85 in 10.0 mi West 9.2 mph 16.1 mph N/A   Scattered Clouds
2:56 PM 86.0 °F 86.1 °F 60.8 °F 43% 29.85 in 10.0 mi West 8.1 mph - N/A   Scattered Clouds
3:15 PM 87.8 °F 87.1 °F 59.0 °F 38% 29.85 in 10.0 mi West 10.4 mph - N/A   Clear
3:35 PM 86.0 °F 85.4 °F 59.0 °F 40% 29.85 in 10.0 mi West 9.2 mph 18.4 mph N/A   Scattered Clouds
3:36 PM 86.0 °F 85.4 °F 59.0 °F 40% 29.85 in 10.0 mi West 10.4 mph 18.4 mph N/A   Scattered Clouds
3:59 PM 86.0 °F 84.9 °F 57.2 °F 37% 29.84 in 10.0 mi WNW 10.4 mph 16.1 mph N/A   Clear
4:17 PM 84.2 °F 83.8 °F 59.0 °F 42% 29.84 in 10.0 mi West 9.2 mph - N/A   Clear
4:35 PM 84.2 °F 83.8 °F 59.0 °F 42% 29.84 in 10.0 mi West 10.4 mph - N/A   Clear
4:55 PM 86.0 °F 85.4 °F 59.0 °F 40% 29.83 in 10.0 mi West 8.1 mph - N/A   Clear
4:56 PM 86.0 °F 85.4 °F 59.0 °F 40% 29.83 in 10.0 mi West 9.2 mph - N/A   Clear
5:15 PM 84.2 °F 83.5 °F 57.2 °F 40% 29.83 in 10.0 mi West 9.2 mph - N/A   Clear
5:20 PM 84.2 °F 83.5 °F 57.2 °F 40% 29.83 in 10.0 mi West 8.1 mph - N/A   Clear
5:38 PM 84.2 °F 83.5 °F 57.2 °F 40% 29.82 in 10.0 mi West 8.1 mph - N/A   Clear
5:56 PM 84.2 °F 83.8 °F 59.0 °F 42% 29.82 in 10.0 mi WSW 6.9 mph - N/A   Clear
6:15 PM 84.2 °F 83.8 °F 59.0 °F 42% 29.81 in 10.0 mi WSW 5.8 mph - N/A   Clear
6:35 PM 84.2 °F 83.8 °F 59.0 °F 42% 29.81 in 10.0 mi WSW 4.6 mph - N/A   Clear
6:36 PM 84.2 °F 84.4 °F 60.8 °F 45% 29.81 in 10.0 mi West 5.8 mph - N/A   Clear
6:59 PM 82.4 °F 82.9 °F 60.8 °F 48% 29.81 in 10.0 mi West 4.6 mph - N/A   Clear
7:17 PM 82.4 °F 82.9 °F 60.8 °F 48% 29.81 in 10.0 mi West 5.8 mph - N/A   Clear
7:35 PM 80.6 °F 81.8 °F 62.6 °F 54% 29.80 in 10.0 mi Calm Calm - N/A   Clear
7:55 PM 78.8 °F - 62.6 °F 57% 29.79 in 10.0 mi Calm Calm - N/A   Clear
7:56 PM 78.8 °F - 62.6 °F 57% 29.79 in 10.0 mi Calm Calm - N/A   Clear
8:15 PM 75.2 °F - 64.4 °F 69% 29.79 in 10.0 mi Calm Calm - N/A   Clear
8:20 PM 75.2 °F - 64.4 °F 69% 29.80 in 10.0 mi Calm Calm - N/A   Clear
8:38 PM 73.4 °F - 64.4 °F 73% 29.80 in 10.0 mi Calm Calm - N/A   Clear
8:56 PM 69.8 °F - 64.4 °F 83% 29.81 in 10.0 mi Calm Calm - N/A   Clear
9:16 PM 68.0 °F - 64.4 °F 88% 29.82 in 10.0 mi Calm Calm - N/A   Clear
9:35 PM 68.0 °F - 62.6 °F 83% 29.81 in 10.0 mi Calm Calm - N/A   Clear
9:55 PM 69.8 °F - 64.4 °F 83% 29.82 in 10.0 mi Calm Calm - N/A   Clear
9:59 PM 69.8 °F - 64.4 °F 83% 29.82 in 10.0 mi Calm Calm - N/A   Clear
10:18 PM 64.4 °F - 62.6 °F 94% 29.83 in 10.0 mi Calm Calm - N/A   Clear
10:36 PM 66.2 °F - 62.6 °F 88% 29.83 in 10.0 mi Calm Calm - N/A   Clear
10:55 PM 64.4 °F - 62.6 °F 94% 29.82 in 10.0 mi Calm Calm - N/A   Clear
11:15 PM 66.2 °F - 62.6 °F 88% 29.80 in 10.0 mi Calm Calm - N/A   Clear
11:39 PM 64.4 °F - 62.6 °F 94% 29.79 in 10.0 mi Calm Calm - N/A   Clear
11:57 PM 64.4 °F - 62.6 °F 94% 29.79 in 10.0 mi Calm Calm - N/A   Clear